Weather History for McGuire AFB, NJ

Change the Weather History Date:

Thursday, October 3, 2013

  Actual Average Record
Temperature  
Mean Temperature 68 °F -  
Max Temperature 80 °F 68 °F 87 °F (2001)
Min Temperature 57 °F 47 °F 35 °F (2003)
Cooling Degree Days 3    
Growing Degree Days 18 (Base 50)    
Moisture  
Dew Point 59 °F    
Average Humidity 92    
Maximum Humidity 100    
Minimum Humidity 44    
Precipitation  
Precipitation 0.00 in - - ()
Sea Level Pressure  
Sea Level Pressure 30.06 in    
Wind  
Wind Speed 0 mph (South)    
Max Wind Speed 8 mph    
Max Gust Speed -    
Visibility 4 miles    
Events Fog , Rain    
Averages and records for this station are not official NWS values.
T = Trace of Precipitation, MM = Missing Value Source: NWS Daily Summary

Daily Weather History Graph

Daily Weather History Graph

Search for Another Location

Airport:

Trip Planner

Search our weather history database for the weather conditions in past years. The results will help you decide how hot, cold, wet, or windy it might be!

Date:

Astronomy

Oct. 03, 2013 Rise Set
Actual Time 6:56 AM EDT 6:37 PM EDT
Civil Twilight 6:29 AM EDT 7:04 PM EDT
Nautical Twilight 5:58 AM EDT 7:35 PM EDT
Astronomical Twilight 5:26 AM EDT 8:06 PM EDT
Moon 5:27 AM EDT (10/3) 5:44 PM EDT (10/3)
Length of Visible Light 12h 34m
Length of Day
11h 40m
Waning Crescent, 2% of the Moon is Illuminated
Oct 3
Waning Crescent
Oct 4
New
Oct 11
First Quarter
Oct 18
Full
Oct 26
Last Quarter

Hourly Weather History & Observations

Time (EDT) Temp. Dew Point Humidity Pressure Visibility Wind Dir Wind Speed Gust Speed Precip Events Conditions
12:58 AM 64.2 °F 60.3 °F 87% 30.03 in 10.0 mi Calm Calm - N/A   Clear
1:58 AM 62.6 °F 60.6 °F 93% 30.04 in 10.0 mi Calm Calm - N/A   Clear
1:59 AM 62.6 °F 60.8 °F 94% 30.03 in 9.0 mi Calm Calm - N/A   Clear
2:06 AM 62.6 °F 60.8 °F 94% 30.03 in 7.0 mi Calm Calm - N/A   Clear
2:11 AM 62.6 °F 60.8 °F 94% 30.03 in 7.0 mi Calm Calm - N/A   Clear
2:16 AM 62.6 °F 60.8 °F 94% 30.03 in 9.0 mi Calm Calm - N/A   Clear
2:27 AM 60.8 °F 59.0 °F 94% 30.03 in 9.0 mi Calm Calm - N/A   Clear
2:40 AM 60.8 °F 59.0 °F 94% 30.04 in 7.0 mi Calm Calm - N/A   Clear
2:44 AM 60.8 °F 59.0 °F 94% 30.04 in 7.0 mi North 2.3 mph - N/A   Clear
2:49 AM 60.8 °F 59.0 °F 94% 30.04 in 9.0 mi NNE 1.2 mph - N/A   Clear
2:58 AM 60.1 °F 59.5 °F 98% 30.05 in 10.0 mi ENE 2.3 mph - N/A   Clear
3:11 AM 60.8 °F 60.8 °F 100% 30.04 in 9.0 mi Calm Calm - N/A   Clear
3:43 AM 60.8 °F 59.0 °F 94% 30.04 in 2.5 mi Calm Calm - N/A   Clear
3:44 AM 60.8 °F 59.0 °F 94% 30.04 in 1.5 mi Calm Calm - N/A   Clear
3:45 AM 60.8 °F 59.0 °F 94% 30.04 in 1.0 mi Calm Calm - N/A   Clear
3:46 AM 60.8 °F 59.0 °F 94% 30.04 in 0.8 mi Calm Calm - N/A   Clear
3:47 AM 60.8 °F 60.8 °F 100% 30.04 in 0.5 mi Calm Calm - N/A Fog Fog
3:49 AM 60.8 °F 60.8 °F 100% 30.04 in 0.2 mi Calm Calm - N/A Fog Fog
3:51 AM 60.8 °F 60.8 °F 100% 30.04 in 0.2 mi Calm Calm - N/A Fog Fog
3:56 AM 59.0 °F 59.0 °F 100% 30.04 in 0.2 mi Calm Calm - N/A Fog Fog
3:58 AM 59.0 °F 59.0 °F 100% 30.05 in 0.2 mi Calm Calm - N/A Fog Fog
3:59 AM 59.0 °F 59.0 °F 100% 30.04 in 0.5 mi Calm Calm - N/A Fog Fog
4:02 AM 59.0 °F 59.0 °F 100% 30.04 in 0.8 mi Calm Calm - N/A   Clear
4:04 AM 59.0 °F 59.0 °F 100% 30.04 in 1.0 mi Calm Calm - N/A   Clear
4:11 AM 59.0 °F 57.2 °F 94% 30.05 in 1.5 mi Calm Calm - N/A   Clear
4:12 AM 57.2 °F 57.2 °F 100% 30.04 in 2.0 mi Calm Calm - N/A   Clear
4:13 AM 57.2 °F 57.2 °F 100% 30.05 in 2.5 mi Calm Calm - N/A   Clear
4:14 AM 57.2 °F 57.2 °F 100% 30.05 in 3.0 mi North - - N/A   Clear
4:16 AM 57.2 °F 57.2 °F 100% 30.05 in 3.0 mi Calm Calm - N/A   Clear
4:18 AM 57.2 °F 57.2 °F 100% 30.05 in 2.5 mi Calm Calm - N/A   Clear
4:27 AM 57.2 °F 57.2 °F 100% 30.04 in 2.5 mi Calm Calm - N/A   Clear
4:28 AM 57.2 °F 57.2 °F 100% 30.05 in 4.0 mi Calm Calm - N/A   Clear
4:30 AM 57.2 °F 57.2 °F 100% 30.04 in 8.0 mi Calm Calm - N/A   Clear
4:33 AM 57.2 °F 57.2 °F 100% 30.05 in 10.0 mi Calm Calm - N/A   Clear
4:40 AM 57.2 °F 57.2 °F 100% 30.05 in 9.0 mi Calm Calm - N/A   Clear
4:51 AM 59.0 °F 59.0 °F 100% 30.05 in 6.0 mi Calm Calm - N/A   Clear
4:55 AM 59.0 °F 59.0 °F 100% 30.05 in 4.0 mi Calm Calm - N/A   Clear
4:57 AM 59.0 °F 59.0 °F 100% 30.05 in 2.5 mi Calm Calm - N/A   Clear
4:58 AM 59.0 °F 59.0 °F 100% 30.06 in 2.5 mi Calm Calm - N/A   Clear
4:59 AM 59.0 °F 59.0 °F 100% 30.05 in 1.8 mi Calm Calm - N/A   Clear
5:00 AM 59.0 °F 59.0 °F 100% 30.05 in 1.5 mi Calm Calm - N/A   Clear
5:01 AM 59.0 °F 59.0 °F 100% 30.05 in 1.2 mi Calm Calm - N/A   Clear
5:02 AM 59.0 °F 59.0 °F 100% 30.05 in 1.0 mi Calm Calm - N/A   Clear
5:04 AM 59.0 °F 59.0 °F 100% 30.05 in 0.8 mi Calm Calm - N/A   Clear
5:07 AM 59.0 °F 59.0 °F 100% 30.05 in 1.0 mi Calm Calm - N/A   Clear
5:09 AM 59.0 °F 59.0 °F 100% 30.05 in 1.2 mi Calm Calm - N/A   Clear
5:11 AM 59.0 °F 59.0 °F 100% 30.05 in 1.5 mi Calm Calm - N/A   Clear
5:12 AM 59.0 °F 59.0 °F 100% 30.05 in 2.0 mi Calm Calm - N/A   Clear
5:14 AM 59.0 °F 59.0 °F 100% 30.05 in 1.8 mi Calm Calm - N/A   Clear
5:15 AM 59.0 °F 59.0 °F 100% 30.05 in 1.2 mi Calm Calm - N/A   Clear
5:16 AM 59.0 °F 59.0 °F 100% 30.06 in 1.0 mi Calm Calm - N/A   Clear
5:22 AM 59.0 °F 59.0 °F 100% 30.06 in 1.2 mi Calm Calm - N/A   Clear
5:24 AM 59.0 °F 59.0 °F 100% 30.06 in 1.5 mi Calm Calm - N/A   Clear
5:25 AM 59.0 °F 59.0 °F 100% 30.06 in 2.5 mi Calm Calm - N/A   Clear
5:26 AM 59.0 °F 59.0 °F 100% 30.06 in 3.0 mi Calm Calm - N/A   Clear
5:27 AM 59.0 °F 59.0 °F 100% 30.06 in 5.0 mi Calm Calm - N/A   Clear
5:28 AM 59.0 °F 59.0 °F 100% 30.06 in 7.0 mi Calm Calm - N/A   Clear
5:35 AM 59.0 °F 59.0 °F 100% 30.06 in 6.0 mi Calm Calm - N/A   Clear
5:36 AM 59.0 °F 59.0 °F 100% 30.06 in 3.0 mi Calm Calm - N/A   Clear
5:37 AM 59.0 °F 59.0 °F 100% 30.06 in 1.8 mi Calm Calm - N/A   Clear
5:38 AM 59.0 °F 59.0 °F 100% 30.06 in 1.2 mi Calm Calm - N/A   Clear
5:40 AM 59.0 °F 59.0 °F 100% 30.06 in 1.0 mi Calm Calm - N/A   Clear
5:46 AM 59.0 °F 59.0 °F 100% 30.06 in 1.2 mi Calm Calm - N/A   Clear
5:47 AM 59.0 °F 59.0 °F 100% 30.06 in 1.8 mi Calm Calm - N/A   Clear
5:48 AM 59.0 °F 59.0 °F 100% 30.06 in 2.5 mi Calm Calm - N/A   Clear
5:58 AM 59.0 °F 59.0 °F 100% 30.08 in 2.5 mi Calm Calm - N/A   Clear
5:59 AM 59.0 °F 59.0 °F 100% 30.07 in 3.0 mi Calm Calm - N/A   Clear
6:01 AM 59.0 °F 59.0 °F 100% 30.07 in 2.0 mi Calm Calm - N/A   Clear
6:02 AM 59.0 °F 59.0 °F 100% 30.07 in 1.0 mi Calm Calm - N/A   Clear
6:03 AM 59.0 °F 59.0 °F 100% 30.07 in 0.8 mi Calm Calm - N/A   Clear
6:04 AM 59.0 °F 59.0 °F 100% 30.07 in 0.5 mi Calm Calm - N/A Fog Fog
6:06 AM 59.0 °F 59.0 °F 100% 30.07 in 0.2 mi Calm Calm - N/A Fog Fog
6:07 AM 59.0 °F 59.0 °F 100% 30.07 in 0.2 mi Calm Calm - N/A Fog Fog
6:09 AM 59.0 °F 59.0 °F 100% 30.07 in 0.2 mi Calm Calm - N/A Fog Fog
6:11 AM 59.0 °F 59.0 °F 100% 30.07 in 0.2 mi Calm Calm - N/A Fog Fog
6:13 AM 59.0 °F 59.0 °F 100% 30.07 in 0.5 mi Calm Calm - N/A Fog Fog
6:14 AM 59.0 °F 59.0 °F 100% 30.07 in 0.5 mi Calm Calm - N/A Fog Fog
6:15 AM 59.0 °F 59.0 °F 100% 30.07 in 0.8 mi Calm Calm - N/A   Clear
6:16 AM 59.0 °F 59.0 °F 100% 30.07 in 1.0 mi Calm Calm - N/A   Clear
6:17 AM 59.0 °F 57.2 °F 94% 30.07 in 2.5 mi Calm Calm - N/A   Clear
6:18 AM 59.0 °F 57.2 °F 94% 30.07 in 4.0 mi Calm Calm - N/A   Clear
6:19 AM 59.0 °F 57.2 °F 94% 30.07 in 7.0 mi Calm Calm - N/A   Clear
6:21 AM 59.0 °F 57.2 °F 94% 30.07 in 10.0 mi Calm Calm - N/A   Clear
6:32 AM 57.2 °F 57.2 °F 100% 30.07 in 9.0 mi Calm Calm - N/A   Clear
6:35 AM 57.2 °F 57.2 °F 100% 30.08 in 6.0 mi Calm Calm - N/A   Clear
6:43 AM 57.2 °F 57.2 °F 100% 30.07 in 6.0 mi Calm Calm - N/A   Clear
6:58 AM 58.1 °F 57.7 °F 99% 30.08 in 5.0 mi Calm Calm - N/A   Clear
7:10 AM 59.0 °F 57.2 °F 94% 30.08 in 2.0 mi Calm Calm - N/A   Clear
7:11 AM 59.0 °F 57.2 °F 94% 30.08 in 1.0 mi Calm Calm - N/A   Clear
7:12 AM 59.0 °F 57.2 °F 94% 30.08 in 0.8 mi Calm Calm - N/A   Clear
7:13 AM 59.0 °F 57.2 °F 94% 30.08 in 0.5 mi Calm Calm - N/A Fog Fog
7:14 AM 59.0 °F 57.2 °F 94% 30.08 in 0.2 mi Calm Calm - N/A Fog Fog
7:16 AM 59.0 °F 57.2 °F 94% 30.09 in 3.0 mi Calm Calm - N/A   Clear
7:30 AM 57.2 °F 57.2 °F 100% 30.09 in 7.0 mi Calm Calm - N/A Fog Shallow Fog
7:58 AM 61.3 °F 60.4 °F 97% 30.10 in 8.0 mi Calm Calm - N/A   Clear
8:58 AM 68.9 °F 59.7 °F 72% 30.11 in 10.0 mi North 4.6 mph - N/A   Clear
9:56 AM 71.6 °F 57.2 °F 60% 30.11 in 10.0 mi NE 5.8 mph - N/A   Clear
10:56 AM 73.4 °F 55.4 °F 53% 30.11 in 10.0 mi North 3.5 mph - N/A   Partly Cloudy
11:56 AM 75.2 °F 57.2 °F 53% 30.09 in 10.0 mi Variable 1.2 mph - N/A   Partly Cloudy
12:56 PM 78.8 °F 55.4 °F 44% 30.08 in 10.0 mi Variable 3.5 mph - N/A   Clear
1:56 PM 78.8 °F 57.2 °F 47% 30.06 in 10.0 mi Variable 1.2 mph - N/A   Partly Cloudy
2:58 PM 79.9 °F 57.7 °F 47% 30.06 in 10.0 mi West 2.3 mph - N/A   Partly Cloudy
3:58 PM 79.5 °F 59.0 °F 49% 30.04 in 10.0 mi WSW 4.6 mph - N/A   Clear
4:35 PM 78.8 °F 59.0 °F 51% 30.03 in 10.0 mi SW 3.5 mph - N/A Rain Light Rain
4:43 PM 78.8 °F 59.0 °F 51% 30.03 in 10.0 mi SSW 4.6 mph - N/A Rain Light Rain
4:46 PM 78.8 °F 59.0 °F 51% 30.03 in 10.0 mi SSW 3.5 mph - N/A   Clear
4:58 PM 78.4 °F 59.2 °F 51% 30.04 in 10.0 mi SSW 2.3 mph - 0.00 in   Clear
5:58 PM 73.2 °F 60.3 °F 64% 30.05 in 10.0 mi SSE 8.1 mph - N/A   Clear
6:58 PM 70.0 °F 57.0 °F 63% 30.06 in 10.0 mi SSE 6.9 mph - N/A   Clear
7:58 PM 68.2 °F 53.1 °F 58% 30.06 in 10.0 mi South 8.1 mph - N/A   Mostly Cloudy
8:58 PM 66.6 °F 53.2 °F 62% 30.07 in 10.0 mi South 6.9 mph - N/A   Mostly Cloudy
9:58 PM 65.3 °F 56.5 °F 73% 30.06 in 10.0 mi SSE 3.5 mph - N/A   Partly Cloudy
10:58 PM 64.8 °F 58.1 °F 79% 30.07 in 10.0 mi South 3.5 mph - N/A   Partly Cloudy